FW9776 Weather Reports


time (UTC)temp
F
wind
direction
speed
knots
gust
knots
rain 1hr
in
rain 24hr
in
rain mn
in
humidity
%
barometer
mb
20260505031559 50 233 6.1 10.4 0.00 0.25 0.00 74 1006.5
20260505030100 50 233 6.1 11.3 0.00 0.25 0.00 74 1006.2
20260505024557 50 231 5.2 12.2 0.00 0.25 0.25 74 1006.0
20260505023059 50 206 5.2 10.4 0.00 0.25 0.25 73 1005.9
20260505021555 51 217 4.3 10.4 0.00 0.25 0.25 72 1005.7
20260505014556 51 235 5.2 9.6 0.00 0.25 0.25 71 1005.4
20260505013105 51 231 5.2 11.3 0.00 0.25 0.25 69 1005.3
20260505011600 51 196 4.3 12.2 0.00 0.25 0.25 68 1005.2
20260505010111 52 202 4.3 12.2 0.00 0.25 0.25 66 1005.2
20260505004558 52 243 6.1 12.2 0.00 0.25 0.25 66 1005.1
20260505003058 52 205 6.1 16.5 0.00 0.25 0.25 66 1005.1
20260505001603 53 219 8.7 13.0 0.00 0.25 0.25 66 1004.8
20260504234555 54 239 7.0 17.4 0.00 0.26 0.25 59 1004.4
20260504233107 54 205 9.6 20.9 0.00 0.26 0.25 56 1004.2
20260504231604 55 239 6.1 11.3 0.00 0.26 0.25 48 1004.3
20260504230058 55 212 6.1 20.9 0.00 0.26 0.25 43 1003.9
20260504224558 56 250 10.4 18.2 0.00 0.30 0.25 42 1003.6
20260504223056 56 257 6.1 17.4 0.00 0.30 0.25 42 1003.4
20260504221555 56 241 6.1 12.2 0.00 0.30 0.25 41 1003.1
20260504220056 57 271 7.8 19.1 0.00 0.30 0.25 39 1003.1
20260504214602 58 268 10.4 24.3 0.00 0.37 0.25 39 1003.1
20260504213058 57 213 14.8 26.9 0.00 0.37 0.25 40 1003.2
20260504211559 58 283 9.6 24.3 0.00 0.37 0.25 40 1003.0
20260504210108 57 261 12.2 26.1 0.00 0.37 0.25 40 1002.8
20260504204602 57 249 11.3 22.6 0.00 0.47 0.25 43 1002.5
20260504203108 57 244 13.0 28.7 0.00 0.47 0.25 41 1002.3
20260504201603 57 249 10.4 26.1 0.00 0.47 0.25 42 1002.1
20260504200103 56 246 14.8 23.5 0.00 0.47 0.25 45 1001.9
20260504194608 56 260 13.0 24.3 0.00 0.55 0.25 45 1001.8
20260504193102 55 235 13.0 27.8 0.00 0.55 0.25 49 1001.7
20260504191558 55 227 14.8 26.9 0.00 0.55 0.25 53 1001.5
20260504190128 55 287 13.9 29.5 0.00 0.55 0.25 54 1001.6
20260504184559 55 250 14.8 26.1 0.00 0.55 0.25 57 1001.4
20260504183056 55 288 13.9 22.6 0.00 0.55 0.25 58 1001.0
20260504181605 55 243 12.2 24.3 0.00 0.55 0.25 60 1000.9
20260504180057 55 254 10.4 23.5 0.00 0.55 0.25 61 1000.8
20260504174601 54 257 13.0 24.3 0.00 0.55 0.25 62 1000.7
20260504173101 53 226 11.3 25.2 0.00 0.55 0.25 68 1000.6
20260504171556 53 249 13.9 23.5 0.00 0.55 0.25 66 1000.5
20260504081601 36 273 20.0 42.6 0.00 0.48 0.17 93 985.5
20260504060120 38 250 13.9 25.2 0.02 0.44 0.14 96 979.6
20260504050117 40 259 7.8 15.6 0.03 0.42 0.11 97 977.5
20260504044600 40 281 6.1 12.2 0.03 0.41 0.11 97 977.3
20260504043111 39 253 8.7 14.8 0.03 0.40 0.10 97 977.2
20260504041557 39 252 8.7 13.9 0.05 0.40 0.09 97 976.7
20260504040108 39 283 8.7 13.0 0.07 0.38 0.07 97 976.1
20260504034559 39 290 6.1 11.3 0.07 0.37 0.07 96 975.5
20260504033105 39 289 4.3 8.7 0.07 0.37 0.06 96 975.2